DLH824D EDDF-EKCH

Flight info

Callsign DLH824D
Flight time N/A
Altitude 37000
Route MARUN6E/07C MARUN Y150 TOLGI DCT SAS DCT MAKEL N851 GESKA Z711 MONAK
Aircraft A320/M-SDE3FGHIRWY/LB1

Departure

Time N/A
Airport Frankfurt Main Airport (EDDF)

Arrival

Time 2026-05-01 07:35
Airport Copenhagen Kastrup Airport (EKCH)
Time Latitude Longitude Altitude Speed Heading
2026-05-01 07:23 55.28219 12.59687 13403 ft 314 kts 30°
2026-05-01 07:23 55.31933 12.63326 13032 ft 299 kts 30°
2026-05-01 07:24 55.33743 12.65106 12694 ft 297 kts 30°
2026-05-01 07:24 55.35543 12.66878 12370 ft 295 kts 30°
2026-05-01 07:24 55.37329 12.68638 12038 ft 294 kts 30°
2026-05-01 07:24 55.39107 12.70388 11695 ft 293 kts 30°
2026-05-01 07:25 55.40879 12.72136 11362 ft 291 kts 30°
2026-05-01 07:25 55.42639 12.73873 11033 ft 289 kts 30°
2026-05-01 07:25 55.44390 12.75600 10691 ft 288 kts 30°
2026-05-01 07:25 55.46135 12.77322 10363 ft 287 kts 30°
2026-05-01 07:26 55.47868 12.79036 9994 ft 285 kts 30°
2026-05-01 07:26 55.49597 12.80752 9618 ft 284 kts 30°
2026-05-01 07:26 55.51311 12.82455 9249 ft 282 kts 30°
2026-05-01 07:26 55.53012 12.84147 8877 ft 280 kts 30°
2026-05-01 07:27 55.54709 12.85836 8489 ft 279 kts 30°
2026-05-01 07:27 55.56396 12.87519 8116 ft 278 kts 30°
2026-05-01 07:27 55.58070 12.89190 7717 ft 274 kts 30°
2026-05-01 07:27 55.59729 12.90846 7085 ft 273 kts 30°
2026-05-01 07:28 55.61376 12.92489 6428 ft 271 kts 30°
2026-05-01 07:28 55.63013 12.94127 5772 ft 270 kts 28°
2026-05-01 07:28 55.64645 12.95761 5107 ft 269 kts 28°
2026-05-01 07:28 55.66268 12.97386 4474 ft 266 kts 27°
2026-05-01 07:29 55.67858 12.98982 4077 ft 260 kts 27°
2026-05-01 07:29 55.69434 13.00561 4001 ft 260 kts 27°
2026-05-01 07:29 55.71019 13.02148 4006 ft 262 kts 27°
2026-05-01 07:29 55.72713 13.03240 4006 ft 258 kts
2026-05-01 07:30 55.74431 13.02824 3883 ft 249 kts 335°
2026-05-01 07:30 55.75754 13.01021 3768 ft 235 kts 310°
2026-05-01 07:30 55.76733 12.98765 3622 ft 226 kts 305°
2026-05-01 07:30 55.77325 12.96254 3385 ft 222 kts 276°
2026-05-01 07:31 55.77145 12.93526 3093 ft 223 kts 258°
2026-05-01 07:31 55.75143 12.86369 3011 ft 225 kts 224°
2026-05-01 07:32 55.72780 12.82698 2715 ft 225 kts 224°
2026-05-01 07:32 55.71609 12.80870 2432 ft 224 kts 224°
2026-05-01 07:33 55.69315 12.77296 1838 ft 212 kts 225°
2026-05-01 07:33 55.68226 12.75600 1558 ft 203 kts 224°
2026-05-01 07:33 55.66252 12.72531 1055 ft 173 kts 224°
2026-05-01 07:34 55.65400 12.71208 823 ft 154 kts 224°
2026-05-01 07:34 55.63897 12.68871 413 ft 139 kts 224°
2026-05-01 07:34 55.63214 12.67809 241 ft 136 kts 224°
2026-05-01 07:35 55.62505 12.66707 55 ft 135 kts 223°
2026-05-01 07:35 55.61861 12.65701 27 ft 98 kts 221°
2026-05-01 07:35 55.61531 12.65189 23 ft 48 kts 221°
2026-05-01 07:35 55.61314 12.64818 25 ft 39 kts 236°
2026-05-01 07:36 55.61216 12.64408 25 ft 29 kts 251°
2026-05-01 07:36 55.61216 12.64128 27 ft 23 kts 322°
2026-05-01 07:36 55.61357 12.64198 25 ft 24 kts 32°
2026-05-01 07:36 55.61526 12.64394 26 ft 33 kts 32°
2026-05-01 07:37 55.61912 12.64835 24 ft 24 kts 31°
2026-05-01 07:37 55.62059 12.65006 24 ft 26 kts 34°
2026-05-01 07:37 55.62191 12.65159 24 ft 18 kts 30°
2026-05-01 07:38 55.62278 12.65074 24 ft 18 kts 302°
2026-05-01 07:38 55.62358 12.64862 24 ft 22 kts 303°
2026-05-01 07:38 55.62538 12.64374 25 ft 25 kts 303°
2026-05-01 07:39 55.62633 12.64114 24 ft 23 kts 303°